| time (UTC) | temp C | wind direction | speed KPH | gust KPH | rain 1hr cm | rain 24hr cm | rain mn cm | humidity % | barometer mb |
| 20260905010713 | 26 | 169 | 3.2 | 8.0 | 0.00 | 0.00 | 0.00 | 91 | 1015.3 |
| 20260905010505 | 26 | 169 | 3.2 | 8.0 | 0.00 | 0.00 | 0.00 | 91 | 1015.3 |
| 20260905010352 | 27 | 170 | 1.6 | 9.7 | 0.00 | 0.00 | 0.00 | 89 | 1015.3 |
| 20260905010005 | 27 | 170 | 1.6 | 9.7 | 0.00 | 0.00 | 0.00 | 89 | 1015.3 |
| 20260905005650 | 27 | 173 | 1.6 | 9.7 | 0.00 | 0.00 | 0.00 | 88 | 1015.0 |
| 20260905005505 | 27 | 173 | 1.6 | 9.7 | 0.00 | 0.00 | 0.00 | 88 | 1015.0 |
| 20260905004935 | 27 | 161 | 4.8 | 12.9 | 0.00 | 0.00 | 0.00 | 88 | 1014.9 |
| 20260905004405 | 27 | 171 | 6.4 | 17.7 | 0.00 | 0.00 | 0.00 | 88 | 1015.2 |
| 20260905003905 | 27 | 164 | 6.4 | 17.7 | 0.00 | 0.00 | 0.00 | 87 | 1015.5 |
| 20260905003405 | 28 | 115 | 6.4 | 17.7 | 0.00 | 0.00 | 0.00 | 89 | 1015.5 |
| 20260905003158 | 28 | 97 | 4.8 | 16.1 | 0.00 | 0.00 | 0.00 | 90 | 1015.7 |
| 20260905002905 | 28 | 97 | 4.8 | 16.1 | 0.00 | 0.00 | 0.00 | 90 | 1015.7 |
| 20260905001305 | 28 | 42 | 1.6 | 6.4 | 0.00 | 0.03 | 0.00 | 89 | 1015.4 |
| 20260905000735 | 28 | 24 | 3.2 | 6.4 | 0.00 | 0.03 | 0.00 | 89 | 1015.0 |
| 20260904234851 | 29 | 6 | 4.8 | 9.7 | 0.00 | 0.05 | 0.00 | 86 | 1015.2 |
| 20260904234705 | 29 | 6 | 4.8 | 9.7 | 0.00 | 0.05 | 0.00 | 86 | 1015.2 |
| 20260904234135 | 29 | 11 | 3.2 | 9.7 | 0.00 | 0.05 | 0.00 | 86 | 1015.0 |
| 20260904233635 | 29 | 40 | 1.6 | 8.0 | 0.00 | 0.08 | 0.00 | 86 | 1014.8 |
| 20260904233355 | 29 | 101 | 1.6 | 4.8 | 0.00 | 0.10 | 0.00 | 85 | 1014.9 |
| 20260904233105 | 29 | 101 | 1.6 | 4.8 | 0.00 | 0.10 | 0.00 | 85 | 1014.9 |
| 20260904232808 | 29 | 110 | 1.6 | 4.8 | 0.00 | 0.15 | 0.00 | 86 | 1014.9 |
| 20260904232605 | 29 | 110 | 1.6 | 4.8 | 0.00 | 0.15 | 0.00 | 86 | 1014.9 |
| 20260904232310 | 29 | 106 | 1.6 | 4.8 | 0.00 | 0.23 | 0.00 | 86 | 1014.9 |
| 20260904232105 | 29 | 106 | 1.6 | 4.8 | 0.00 | 0.23 | 0.00 | 86 | 1014.9 |
| 20260904231605 | 30 | 102 | 3.2 | 6.4 | 0.00 | 0.28 | 0.00 | 86 | 1014.8 |
| 20260904231035 | 30 | 100 | 3.2 | 6.4 | 0.00 | 0.36 | 0.00 | 85 | 1014.7 |
| 20260904230424 | 30 | 85 | 3.2 | 9.7 | 0.00 | 0.41 | 0.00 | 83 | 1014.5 |
| 20260904230035 | 30 | 85 | 3.2 | 9.7 | 0.00 | 0.41 | 0.00 | 83 | 1014.5 |
| 20260904225756 | 30 | 95 | 3.2 | 9.7 | 0.00 | 0.43 | 0.00 | 83 | 1014.5 |
| 20260904225505 | 30 | 95 | 3.2 | 9.7 | 0.00 | 0.43 | 0.00 | 83 | 1014.5 |
| 20260904225005 | 31 | 95 | 1.6 | 4.8 | 0.00 | 0.43 | 0.00 | 81 | 1014.5 |
| 20260904224505 | 31 | 78 | 0.0 | 4.8 | 0.00 | 0.43 | 0.00 | 81 | 1014.4 |
| 20260904223935 | 31 | 0 | 0.0 | 0.0 | 0.00 | 0.43 | 0.00 | 79 | 1014.3 |
| 20260904223434 | 31 | 198 | 0.0 | 1.6 | 0.00 | 0.43 | 0.00 | 80 | 1014.5 |
| 20260904223302 | 31 | 199 | 0.0 | 1.6 | 0.00 | 0.43 | 0.00 | 79 | 1014.6 |
| 20260904222905 | 31 | 199 | 0.0 | 1.6 | 0.00 | 0.43 | 0.00 | 79 | 1014.6 |
| 20260904222405 | 31 | 220 | 1.6 | 3.2 | 0.00 | 0.43 | 0.00 | 80 | 1014.5 |
| 20260904221335 | 31 | 249 | 3.2 | 4.8 | 0.00 | 0.43 | 0.00 | 80 | 1014.0 |
| 20260904220305 | 31 | 238 | 3.2 | 8.0 | 0.00 | 0.43 | 0.00 | 79 | 1013.3 |
| 20260904215735 | 31 | 239 | 3.2 | 11.3 | 0.00 | 0.43 | 0.00 | 79 | 1013.3 |
| 20260904213605 | 31 | 233 | 3.2 | 11.3 | 0.00 | 0.43 | 0.00 | 78 | 1013.9 |
| 20260904213035 | 31 | 235 | 4.8 | 12.9 | 0.00 | 0.43 | 0.00 | 77 | 1014.1 |
| 20260904212505 | 31 | 235 | 3.2 | 12.9 | 0.00 | 0.43 | 0.00 | 76 | 1014.2 |
| 20260904212005 | 31 | 232 | 3.2 | 14.5 | 0.00 | 0.43 | 0.00 | 76 | 1014.4 |
| 20260904211803 | 31 | 234 | 4.8 | 14.5 | 0.00 | 0.43 | 0.00 | 76 | 1014.3 |
| 20260904211505 | 31 | 234 | 4.8 | 14.5 | 0.00 | 0.43 | 0.00 | 76 | 1014.3 |
| 20260904211005 | 31 | 241 | 6.4 | 16.1 | 0.00 | 0.43 | 0.00 | 75 | 1014.2 |
| 20260904210505 | 31 | 255 | 8.0 | 17.7 | 0.00 | 0.43 | 0.00 | 75 | 1013.9 |
| 20260904210202 | 32 | 245 | 6.4 | 17.7 | 0.00 | 0.43 | 0.00 | 74 | 1014.2 |
| 20260904205935 | 32 | 245 | 6.4 | 17.7 | 0.00 | 0.43 | 0.00 | 74 | 1014.2 |
| 20260904205435 | 32 | 241 | 6.4 | 14.5 | 0.00 | 0.43 | 0.00 | 73 | 1014.2 |
| 20260904205218 | 32 | 253 | 6.4 | 16.1 | 0.00 | 0.43 | 0.00 | 76 | 1013.9 |
| 20260904204905 | 32 | 253 | 6.4 | 16.1 | 0.00 | 0.43 | 0.00 | 76 | 1013.9 |
| 20260904204405 | 32 | 259 | 6.4 | 16.1 | 0.00 | 0.46 | 0.00 | 74 | 1013.8 |
| 20260904203905 | 32 | 259 | 6.4 | 12.9 | 0.00 | 0.46 | 0.00 | 75 | 1013.8 |
| 20260904203335 | 32 | 255 | 4.8 | 12.9 | 0.00 | 0.46 | 0.00 | 76 | 1013.9 |
| 20260904202235 | 32 | 254 | 4.8 | 11.3 | 0.00 | 0.61 | 0.00 | 82 | 1013.7 |
| 20260904201735 | 31 | 261 | 4.8 | 12.9 | 0.00 | 0.61 | 0.00 | 80 | 1013.7 |
| 20260904200705 | 32 | 248 | 3.2 | 9.7 | 0.00 | 0.61 | 0.00 | 77 | 1013.7 |
| 20260904195705 | 32 | 252 | 3.2 | 6.4 | 0.00 | 0.61 | 0.00 | 76 | 1013.9 |
| 20260904194705 | 32 | 321 | 3.2 | 6.4 | 0.00 | 0.61 | 0.00 | 76 | 1013.9 |
| 20260904193035 | 31 | 255 | 3.2 | 8.0 | 0.00 | 0.61 | 0.00 | 78 | 1014.2 |
| 20260904192534 | 31 | 274 | 3.2 | 8.0 | 0.00 | 0.61 | 0.00 | 79 | 1014.2 |
| 20260904192228 | 30 | 293 | 3.2 | 8.0 | 0.00 | 0.61 | 0.00 | 79 | 1014.4 |
| 20260904192035 | 30 | 293 | 3.2 | 8.0 | 0.00 | 0.61 | 0.00 | 79 | 1014.4 |
| 20260904191534 | 29 | 302 | 3.2 | 4.8 | 0.00 | 0.61 | 0.00 | 85 | 1014.7 |
| 20260904191246 | 27 | 293 | 1.6 | 4.8 | 0.00 | 0.61 | 0.00 | 88 | 1015.1 |
| 20260904191035 | 27 | 293 | 1.6 | 4.8 | 0.00 | 0.61 | 0.00 | 88 | 1015.1 |
| 20260904190714 | 27 | 254 | 1.6 | 4.8 | 0.00 | 0.61 | 0.00 | 90 | 1014.8 |
| 20260904190535 | 27 | 254 | 1.6 | 4.8 | 0.00 | 0.61 | 0.00 | 90 | 1014.8 |
| 20260904190251 | 26 | 233 | 3.2 | 8.0 | 0.00 | 0.61 | 0.00 | 90 | 1015.0 |
| 20260904190004 | 26 | 233 | 3.2 | 8.0 | 0.00 | 0.61 | 0.00 | 90 | 1015.0 |
| 20260904185504 | 26 | 206 | 4.8 | 14.5 | 0.00 | 0.61 | 0.00 | 88 | 1015.2 |
| 20260904185124 | 27 | 189 | 9.7 | 17.7 | 0.00 | 0.61 | 0.00 | 87 | 1015.2 |
| 20260904184935 | 27 | 189 | 9.7 | 17.7 | 0.00 | 0.61 | 0.00 | 87 | 1015.2 |
| 20260904184435 | 27 | 193 | 11.3 | 17.7 | 0.00 | 0.61 | 0.00 | 84 | 1015.0 |
| 20260904183406 | 31 | 189 | 6.4 | 27.4 | 0.00 | 0.61 | 0.00 | 76 | 1015.3 |
| 20260904182835 | 32 | 178 | 4.8 | 11.3 | 0.00 | 0.61 | 0.00 | 76 | 1015.1 |
| 20260904181834 | 33 | 193 | 6.4 | 16.1 | 0.00 | 0.61 | 0.00 | 74 | 1015.2 |
| 20260904180805 | 33 | 182 | 4.8 | 19.3 | 0.00 | 0.61 | 0.00 | 73 | 1015.2 |
| 20260904180009 | 32 | 213 | 6.4 | 16.1 | 0.00 | 0.61 | 0.00 | 77 | 1015.3 |
| 20260904175734 | 32 | 213 | 6.4 | 16.1 | 0.00 | 0.61 | 0.00 | 77 | 1015.3 |
| 20260904175234 | 32 | 195 | 4.8 | 14.5 | 0.00 | 0.61 | 0.00 | 74 | 1015.4 |
| 20260904174704 | 32 | 217 | 3.2 | 11.3 | 0.00 | 0.61 | 0.00 | 76 | 1015.3 |
| 20260904174135 | 32 | 222 | 3.2 | 12.9 | 0.00 | 0.61 | 0.00 | 75 | 1015.4 |
| 20260904173605 | 32 | 213 | 3.2 | 12.9 | 0.00 | 0.61 | 0.00 | 75 | 1015.5 |
| 20260904173343 | 32 | 202 | 3.2 | 8.0 | 0.00 | 0.61 | 0.00 | 77 | 1015.5 |
| 20260904173105 | 32 | 202 | 3.2 | 8.0 | 0.00 | 0.61 | 0.00 | 77 | 1015.5 |
| 20260904172605 | 32 | 204 | 3.2 | 12.9 | 0.00 | 0.61 | 0.00 | 75 | 1015.6 |
| 20260904172408 | 32 | 219 | 3.2 | 12.9 | 0.00 | 0.61 | 0.00 | 74 | 1015.6 |
| 20260904172035 | 32 | 219 | 3.2 | 12.9 | 0.00 | 0.61 | 0.00 | 74 | 1015.6 |
| 20260904171722 | 32 | 224 | 3.2 | 8.0 | 0.00 | 0.61 | 0.00 | 76 | 1015.5 |
| 20260904171504 | 32 | 224 | 3.2 | 8.0 | 0.00 | 0.61 | 0.00 | 76 | 1015.5 |
| 20260904170713 | 32 | 225 | 4.8 | 12.9 | 0.00 | 0.61 | 0.00 | 77 | 1015.8 |
| 20260904170435 | 32 | 225 | 4.8 | 12.9 | 0.00 | 0.61 | 0.00 | 77 | 1015.8 |
| 20260904165905 | 32 | 227 | 4.8 | 12.9 | 0.00 | 0.61 | 0.00 | 77 | 1015.8 |
| 20260904163805 | 32 | 213 | 4.8 | 14.5 | 0.00 | 0.61 | 0.00 | 76 | 1016.2 |
| 20260904163235 | 32 | 223 | 4.8 | 14.5 | 0.00 | 0.61 | 0.00 | 79 | 1016.3 |
| 20260904162705 | 31 | 230 | 6.4 | 14.5 | 0.00 | 0.61 | 0.00 | 81 | 1016.3 |
| 20260904162136 | 31 | 238 | 6.4 | 14.5 | 0.00 | 0.61 | 0.00 | 79 | 1016.4 |
| 20260904161836 | 31 | 239 | 6.4 | 14.5 | 0.00 | 0.61 | 0.00 | 80 | 1016.5 |
| 20260904161635 | 31 | 239 | 6.4 | 14.5 | 0.00 | 0.61 | 0.00 | 80 | 1016.5 |
| 20260904160829 | 31 | 264 | 3.2 | 6.4 | 0.00 | 0.61 | 0.00 | 82 | 1016.6 |
| 20260904160605 | 31 | 264 | 3.2 | 6.4 | 0.00 | 0.61 | 0.00 | 82 | 1016.6 |
| 20260904160105 | 31 | 270 | 3.2 | 4.8 | 0.00 | 0.61 | 0.00 | 82 | 1016.6 |
| 20260904155035 | 31 | 210 | 3.2 | 9.7 | 0.00 | 0.61 | 0.00 | 81 | 1016.6 |
| 20260904154310 | 31 | 231 | 3.2 | 9.7 | 0.00 | 0.61 | 0.00 | 82 | 1016.7 |
| 20260904154005 | 31 | 231 | 3.2 | 9.7 | 0.00 | 0.61 | 0.00 | 82 | 1016.7 |
| 20260904152934 | 31 | 193 | 4.8 | 12.9 | 0.00 | 0.61 | 0.00 | 82 | 1016.6 |
| 20260904152656 | 31 | 189 | 3.2 | 12.9 | 0.00 | 0.61 | 0.00 | 82 | 1016.6 |
| 20260904152434 | 31 | 189 | 3.2 | 12.9 | 0.00 | 0.61 | 0.00 | 82 | 1016.6 |
| 20260904151904 | 31 | 213 | 3.2 | 11.3 | 0.00 | 0.61 | 0.00 | 83 | 1016.5 |
| 20260904151656 | 31 | 218 | 4.8 | 9.7 | 0.00 | 0.61 | 0.00 | 84 | 1016.5 |
| 20260904151405 | 31 | 218 | 4.8 | 9.7 | 0.00 | 0.61 | 0.00 | 84 | 1016.5 |
| 20260904150405 | 31 | 194 | 4.8 | 12.9 | 0.00 | 0.61 | 0.00 | 84 | 1016.4 |
| 20260904145835 | 30 | 192 | 3.2 | 9.7 | 0.00 | 0.61 | 0.00 | 84 | 1016.3 |
| 20260904145306 | 30 | 194 | 3.2 | 9.7 | 0.00 | 0.61 | 0.00 | 85 | 1016.3 |
| 20260904144234 | 30 | 190 | 4.8 | 11.3 | 0.00 | 0.61 | 0.00 | 87 | 1016.3 |
| 20260904143734 | 30 | 201 | 3.2 | 11.3 | 0.00 | 0.61 | 0.00 | 87 | 1016.3 |
| 20260904143205 | 29 | 206 | 3.2 | 11.3 | 0.00 | 0.61 | 0.00 | 87 | 1016.3 |
| 20260904142934 | 29 | 188 | 3.2 | 8.0 | 0.00 | 0.61 | 0.00 | 89 | 1016.2 |
| 20260904142635 | 29 | 188 | 3.2 | 8.0 | 0.00 | 0.61 | 0.00 | 89 | 1016.2 |
| 20260904141605 | 28 | 188 | 3.2 | 11.3 | 0.00 | 0.61 | 0.00 | 89 | 1016.2 |
| 20260904141104 | 28 | 183 | 4.8 | 12.9 | 0.00 | 0.61 | 0.00 | 90 | 1016.2 |
| 20260904140856 | 28 | 198 | 4.8 | 12.9 | 0.00 | 0.61 | 0.00 | 90 | 1016.1 |
| 20260904140534 | 28 | 198 | 4.8 | 12.9 | 0.00 | 0.61 | 0.00 | 90 | 1016.1 |
| 20260904140035 | 28 | 210 | 4.8 | 12.9 | 0.00 | 0.61 | 0.00 | 91 | 1016.0 |
| 20260904135004 | 28 | 191 | 4.8 | 14.5 | 0.00 | 0.61 | 0.00 | 91 | 1016.1 |
| 20260904134716 | 27 | 180 | 4.8 | 12.9 | 0.00 | 0.61 | 0.00 | 93 | 1016.1 |
| 20260904134504 | 27 | 180 | 4.8 | 12.9 | 0.00 | 0.61 | 0.00 | 93 | 1016.1 |
| 20260904134320 | 27 | 207 | 3.2 | 11.3 | 0.00 | 0.61 | 0.00 | 92 | 1016.0 |
| 20260904134005 | 27 | 207 | 3.2 | 11.3 | 0.00 | 0.61 | 0.00 | 92 | 1016.0 |
| 20260904133804 | 27 | 222 | 3.2 | 11.3 | 0.00 | 0.61 | 0.00 | 95 | 1016.1 |
| 20260904133435 | 27 | 222 | 3.2 | 11.3 | 0.00 | 0.61 | 0.00 | 95 | 1016.1 |
| 20260904132709 | 27 | 207 | 1.6 | 6.4 | 0.00 | 0.61 | 0.00 | 95 | 1015.9 |
| 20260904132404 | 27 | 207 | 1.6 | 6.4 | 0.00 | 0.61 | 0.00 | 95 | 1015.9 |
| 20260904124734 | 26 | 187 | 3.2 | 8.0 | 0.00 | 0.61 | 0.00 | 98 | 1015.6 |
| 20260904124401 | 26 | 185 | 3.2 | 9.7 | 0.00 | 0.61 | 0.00 | 98 | 1015.5 |
| 20260904124205 | 26 | 185 | 3.2 | 9.7 | 0.00 | 0.61 | 0.00 | 98 | 1015.5 |
| 20260904123833 | 26 | 206 | 3.2 | 9.7 | 0.00 | 0.61 | 0.00 | 98 | 1015.5 |
| 20260904123704 | 26 | 206 | 3.2 | 9.7 | 0.00 | 0.61 | 0.00 | 98 | 1015.5 |
| 20260904123327 | 25 | 220 | 1.6 | 4.8 | 0.00 | 0.61 | 0.00 | 99 | 1015.6 |
| 20260904123134 | 25 | 220 | 1.6 | 4.8 | 0.00 | 0.61 | 0.00 | 99 | 1015.6 |
| 20260904122358 | 25 | 167 | 1.6 | 4.8 | 0.00 | 0.61 | 0.00 | 99 | 1015.6 |
| 20260904122135 | 25 | 167 | 1.6 | 4.8 | 0.00 | 0.61 | 0.00 | 99 | 1015.6 |
| 20260904121742 | 25 | 156 | 1.6 | 6.4 | 0.00 | 0.61 | 0.00 | 99 | 1015.6 |
| 20260904121635 | 25 | 156 | 1.6 | 6.4 | 0.00 | 0.61 | 0.00 | 99 | 1015.6 |
| 20260904120840 | 25 | 155 | 1.6 | 6.4 | 0.00 | 0.61 | 0.00 | 99 | 1015.4 |
| 20260904120636 | 25 | 155 | 1.6 | 6.4 | 0.00 | 0.61 | 0.00 | 99 | 1015.4 |
| 20260904120349 | 25 | 148 | 0.0 | 4.8 | 0.00 | 0.61 | 0.00 | 99 | 1015.4 |
| 20260904120136 | 25 | 148 | 0.0 | 4.8 | 0.00 | 0.61 | 0.00 | 99 | 1015.4 |
| 20260904114751 | 25 | 187 | 1.6 | 3.2 | 0.00 | 0.61 | 0.00 | 99 | 1015.3 |
| 20260904114636 | 25 | 187 | 1.6 | 3.2 | 0.00 | 0.61 | 0.00 | 99 | 1015.3 |
| 20260904114255 | 25 | 207 | 0.0 | 3.2 | 0.00 | 0.61 | 0.00 | 99 | 1015.3 |
| 20260904114105 | 25 | 207 | 0.0 | 3.2 | 0.00 | 0.61 | 0.00 | 99 | 1015.3 |
| 20260904113605 | 25 | 206 | 0.0 | 4.8 | 0.00 | 0.61 | 0.00 | 100 | 1015.3 |
| 20260904113034 | 25 | 200 | 0.0 | 4.8 | 0.00 | 0.61 | 0.00 | 99 | 1015.2 |
| 20260904112408 | 25 | 176 | 1.6 | 8.0 | 0.00 | 0.61 | 0.00 | 99 | 1015.2 |
| 20260904112035 | 25 | 176 | 1.6 | 8.0 | 0.00 | 0.61 | 0.00 | 99 | 1015.2 |
| 20260904111644 | 25 | 179 | 1.6 | 4.8 | 0.00 | 0.61 | 0.00 | 99 | 1015.1 |
| 20260904111535 | 25 | 179 | 1.6 | 4.8 | 0.00 | 0.61 | 0.00 | 99 | 1015.1 |
| 20260904111005 | 25 | 179 | 3.2 | 6.4 | 0.00 | 0.61 | 0.00 | 99 | 1015.0 |
| 20260904110434 | 25 | 176 | 3.2 | 6.4 | 0.00 | 0.61 | 0.00 | 99 | 1015.1 |
| 20260904110116 | 25 | 175 | 1.6 | 6.4 | 0.00 | 0.61 | 0.00 | 100 | 1014.9 |
| 20260904105934 | 25 | 175 | 1.6 | 6.4 | 0.00 | 0.61 | 0.00 | 100 | 1014.9 |
| 20260904105634 | 25 | 176 | 1.6 | 6.4 | 0.00 | 0.61 | 0.00 | 100 | 1014.9 |
| 20260904105435 | 25 | 176 | 1.6 | 6.4 | 0.00 | 0.61 | 0.00 | 100 | 1014.9 |
| 20260904104904 | 25 | 175 | 1.6 | 8.0 | 0.00 | 0.61 | 0.00 | 100 | 1014.9 |
| 20260904103306 | 25 | 184 | 0.0 | 6.4 | 0.00 | 0.61 | 0.00 | 100 | 1014.9 |
| 20260904102735 | 25 | 180 | 0.0 | 3.2 | 0.00 | 0.61 | 0.00 | 100 | 1014.9 |
| 20260904101830 | 25 | 161 | 1.6 | 6.4 | 0.00 | 0.61 | 0.00 | 100 | 1014.7 |
| 20260904101636 | 25 | 161 | 1.6 | 6.4 | 0.00 | 0.61 | 0.00 | 100 | 1014.7 |
| 20260904100645 | 25 | 177 | 0.0 | 3.2 | 0.00 | 0.61 | 0.00 | 100 | 1014.6 |
| 20260904100534 | 25 | 177 | 0.0 | 3.2 | 0.00 | 0.61 | 0.00 | 100 | 1014.6 |
| 20260904100220 | 26 | 83 | 4.8 | 12.9 | 0.00 | 0.00 | 0.00 | 100 | 1013.6 |
| 20260904100218 | 26 | 90 | 4.8 | 9.7 | 0.00 | 0.00 | 0.00 | 99 | 1013.8 |
| 20260904094504 | 24 | 178 | 0.0 | 3.2 | 0.00 | 0.61 | 0.00 | 100 | 1014.3 |
| 20260904093436 | 24 | 217 | 0.0 | 1.6 | 0.00 | 0.61 | 0.00 | 100 | 1014.4 |
| 20260904092904 | 24 | 220 | 1.6 | 3.2 | 0.00 | 0.61 | 0.00 | 100 | 1014.3 |
| 20260904092122 | 24 | 177 | 0.0 | 3.2 | 0.00 | 0.61 | 0.00 | 100 | 1014.3 |
| 20260904091905 | 24 | 177 | 0.0 | 3.2 | 0.00 | 0.61 | 0.00 | 100 | 1014.3 |
| 20260904091624 | 24 | 161 | 0.0 | 1.6 | 0.00 | 0.61 | 0.00 | 100 | 1014.3 |
| 20260904091405 | 24 | 161 | 0.0 | 1.6 | 0.00 | 0.61 | 0.00 | 100 | 1014.3 |
| 20260904091033 | 24 | 161 | 0.0 | 3.2 | 0.00 | 0.61 | 0.00 | 100 | 1014.3 |
| 20260904090835 | 24 | 161 | 0.0 | 3.2 | 0.00 | 0.61 | 0.00 | 100 | 1014.3 |
| 20260904090306 | 24 | 169 | 0.0 | 3.2 | 0.00 | 0.61 | 0.00 | 100 | 1014.3 |
| 20260904084704 | 24 | 176 | 0.0 | 1.6 | 0.00 | 0.61 | 0.00 | 100 | 1014.2 |
| 20260904083021 | 24 | 127 | 0.0 | 3.2 | 0.00 | 0.61 | 0.00 | 100 | 1014.2 |
| 20260904082636 | 24 | 127 | 0.0 | 3.2 | 0.00 | 0.61 | 0.00 | 100 | 1014.2 |
| 20260904082104 | 24 | 116 | 1.6 | 4.8 | 0.00 | 0.61 | 0.00 | 100 | 1014.3 |
| 20260904081604 | 24 | 112 | 1.6 | 4.8 | 0.00 | 0.61 | 0.00 | 100 | 1014.3 |
| 20260904081414 | 24 | 100 | 1.6 | 6.4 | 0.00 | 0.61 | 0.00 | 100 | 1014.2 |
| 20260904081105 | 24 | 100 | 1.6 | 6.4 | 0.00 | 0.61 | 0.00 | 100 | 1014.2 |
| 20260904080604 | 24 | 100 | 3.2 | 6.4 | 0.00 | 0.61 | 0.00 | 100 | 1014.4 |
| 20260904080104 | 24 | 104 | 3.2 | 6.4 | 0.00 | 0.61 | 0.00 | 100 | 1014.4 |
| 20260904075843 | 24 | 109 | 3.2 | 6.4 | 0.00 | 0.61 | 0.00 | 100 | 1014.3 |
| 20260904075605 | 24 | 109 | 3.2 | 6.4 | 0.00 | 0.61 | 0.00 | 100 | 1014.3 |
| 20260904075341 | 25 | 105 | 3.2 | 9.7 | 0.00 | 0.61 | 0.00 | 100 | 1014.4 |
| 20260904075035 | 25 | 105 | 3.2 | 9.7 | 0.00 | 0.61 | 0.00 | 100 | 1014.4 |
| 20260904074144 | 25 | 101 | 4.8 | 9.7 | 0.00 | 0.61 | 0.00 | 100 | 1014.2 |
| 20260904074005 | 25 | 101 | 4.8 | 9.7 | 0.00 | 0.61 | 0.00 | 100 | 1014.2 |
| 20260904073138 | 25 | 102 | 4.8 | 9.7 | 0.00 | 0.61 | 0.00 | 100 | 1014.2 |
| 20260904072904 | 25 | 102 | 4.8 | 9.7 | 0.00 | 0.61 | 0.00 | 100 | 1014.2 |
| 20260904072405 | 25 | 101 | 4.8 | 9.7 | 0.00 | 0.61 | 0.00 | 100 | 1014.2 |
| 20260904071905 | 25 | 102 | 4.8 | 9.7 | 0.00 | 0.61 | 0.00 | 100 | 1014.2 |
| 20260904071603 | 25 | 100 | 4.8 | 9.7 | 0.00 | 0.61 | 0.00 | 100 | 1014.2 |
| 20260904071404 | 25 | 100 | 4.8 | 9.7 | 0.00 | 0.61 | 0.00 | 100 | 1014.2 |
| 20260904071050 | 25 | 103 | 3.2 | 9.7 | 0.00 | 0.61 | 0.00 | 100 | 1014.1 |
| 20260904070835 | 25 | 103 | 3.2 | 9.7 | 0.00 | 0.61 | 0.00 | 100 | 1014.1 |
| 20260904070335 | 25 | 105 | 3.2 | 6.4 | 0.00 | 0.61 | 0.00 | 100 | 1014.1 |
| 20260904065835 | 25 | 102 | 4.8 | 6.4 | 0.00 | 0.61 | 0.00 | 100 | 1014.2 |
| 20260904064443 | 25 | 99 | 4.8 | 9.7 | 0.00 | 0.61 | 0.00 | 100 | 1014.3 |
| 20260904064235 | 25 | 99 | 4.8 | 9.7 | 0.00 | 0.61 | 0.00 | 100 | 1014.3 |
| 20260904063704 | 25 | 88 | 3.2 | 9.7 | 0.00 | 0.61 | 0.00 | 100 | 1014.3 |
| 20260904063204 | 25 | 89 | 3.2 | 9.7 | 0.00 | 0.61 | 0.00 | 100 | 1014.3 |
| 20260904062104 | 25 | 104 | 1.6 | 6.4 | 0.00 | 0.61 | 0.00 | 100 | 1014.4 |
| 20260904061535 | 25 | 152 | 1.6 | 4.8 | 0.00 | 0.61 | 0.00 | 100 | 1014.4 |
| 20260904061035 | 25 | 195 | 0.0 | 3.2 | 0.00 | 0.61 | 0.00 | 99 | 1014.4 |
| 20260904060504 | 25 | 195 | 0.0 | 1.6 | 0.00 | 0.61 | 0.00 | 100 | 1014.5 |
| 20260904055934 | 25 | 186 | 0.0 | 1.6 | 0.00 | 0.61 | 0.00 | 99 | 1014.6 |
| 20260904055434 | 25 | 174 | 0.0 | 3.2 | 0.00 | 0.61 | 0.00 | 99 | 1014.7 |
| 20260904054404 | 25 | 167 | 1.6 | 6.4 | 0.00 | 0.61 | 0.00 | 100 | 1014.7 |
| 20260904054133 | 25 | 164 | 1.6 | 4.8 | 0.00 | 0.61 | 0.00 | 100 | 1014.7 |
| 20260904053835 | 25 | 164 | 1.6 | 4.8 | 0.00 | 0.61 | 0.00 | 100 | 1014.7 |
| 20260904053334 | 25 | 168 | 1.6 | 4.8 | 0.00 | 0.61 | 0.00 | 100 | 1014.8 |
| 20260904051530 | 25 | 163 | 1.6 | 8.0 | 0.00 | 0.61 | 0.00 | 100 | 1014.9 |
| 20260904051304 | 25 | 163 | 1.6 | 8.0 | 0.00 | 0.61 | 0.00 | 100 | 1014.9 |
| 20260904050736 | 25 | 153 | 1.6 | 8.0 | 0.00 | 0.61 | 0.00 | 100 | 1014.9 |
| 20260904045735 | 25 | 139 | 0.0 | 3.2 | 0.00 | 0.61 | 0.00 | 100 | 1015.0 |
| 20260904045529 | 25 | 137 | 1.6 | 3.2 | 0.00 | 0.61 | 0.00 | 100 | 1015.0 |
| 20260904045204 | 25 | 137 | 1.6 | 3.2 | 0.00 | 0.61 | 0.00 | 100 | 1015.0 |
| 20260904043104 | 25 | 106 | 1.6 | 4.8 | 0.00 | 0.61 | 0.00 | 100 | 1015.2 |
| 20260904042034 | 25 | 110 | 1.6 | 4.8 | 0.00 | 0.61 | 0.00 | 100 | 1015.2 |
| 20260904041535 | 25 | 102 | 3.2 | 6.4 | 0.00 | 0.61 | 0.00 | 100 | 1015.1 |
| 20260904041219 | 25 | 102 | 4.8 | 9.7 | 0.00 | 0.61 | 0.00 | 100 | 1015.1 |
| 20260904041007 | 25 | 102 | 4.8 | 9.7 | 0.00 | 0.61 | 0.00 | 100 | 1015.1 |
| 20260904040806 | 25 | 107 | 3.2 | 9.7 | 0.00 | 0.61 | 0.00 | 100 | 1015.1 |
| 20260904040504 | 25 | 107 | 3.2 | 9.7 | 0.00 | 0.61 | 0.00 | 100 | 1015.1 |
| 20260904040250 | 25 | 110 | 3.2 | 6.4 | 0.00 | 0.61 | 0.00 | 100 | 1015.0 |
| 20260904040005 | 25 | 110 | 3.2 | 6.4 | 0.00 | 0.61 | 0.00 | 100 | 1015.0 |
| 20260904035715 | 25 | 107 | 4.8 | 6.4 | 0.00 | 0.61 | 0.61 | 99 | 1015.1 |
| 20260904035435 | 25 | 107 | 4.8 | 6.4 | 0.00 | 0.61 | 0.61 | 99 | 1015.1 |
| 20260904034404 | 25 | 104 | 3.2 | 6.4 | 0.00 | 0.61 | 0.61 | 99 | 1015.1 |
| 20260904034212 | 25 | 107 | 3.2 | 6.4 | 0.00 | 0.61 | 0.61 | 99 | 1015.1 |
| 20260904033905 | 25 | 107 | 3.2 | 6.4 | 0.00 | 0.61 | 0.61 | 99 | 1015.1 |
| 20260904033404 | 25 | 108 | 4.8 | 6.4 | 0.00 | 0.61 | 0.61 | 99 | 1015.1 |
| 20260904033047 | 25 | 106 | 4.8 | 9.7 | 0.00 | 0.61 | 0.61 | 99 | 1015.1 |
| 20260904032834 | 25 | 106 | 4.8 | 9.7 | 0.00 | 0.61 | 0.61 | 99 | 1015.1 |
| 20260904032334 | 25 | 107 | 6.4 | 11.3 | 0.00 | 0.61 | 0.61 | 99 | 1015.0 |
| 20260904031834 | 25 | 104 | 6.4 | 11.3 | 0.00 | 0.61 | 0.61 | 99 | 1015.0 |
| 20260904030425 | 25 | 104 | 4.8 | 11.3 | 0.00 | 0.61 | 0.61 | 99 | 1015.1 |
| 20260904030234 | 25 | 104 | 4.8 | 11.3 | 0.00 | 0.61 | 0.61 | 99 | 1015.1 |
| 20260904025704 | 25 | 99 | 4.8 | 11.3 | 0.00 | 0.61 | 0.61 | 99 | 1015.1 |
| 20260904024104 | 25 | 103 | 4.8 | 11.3 | 0.00 | 0.61 | 0.61 | 99 | 1015.0 |
| 20260904023305 | 25 | 101 | 6.4 | 12.9 | 0.00 | 0.61 | 0.61 | 99 | 1014.7 |
| 20260904023005 | 25 | 101 | 6.4 | 12.9 | 0.00 | 0.61 | 0.61 | 99 | 1014.7 |
| 20260904022715 | 25 | 101 | 4.8 | 11.3 | 0.00 | 0.61 | 0.61 | 99 | 1014.7 |
| 20260904022434 | 25 | 101 | 4.8 | 11.3 | 0.00 | 0.61 | 0.61 | 99 | 1014.7 |
| 20260904021904 | 25 | 104 | 6.4 | 11.3 | 0.00 | 0.61 | 0.61 | 99 | 1014.7 |
| 20260904021201 | 25 | 109 | 4.8 | 14.5 | 0.00 | 0.61 | 0.61 | 99 | 1014.6 |
| 20260904020837 | 25 | 109 | 4.8 | 14.5 | 0.00 | 0.61 | 0.61 | 99 | 1014.6 |
| 20260904020335 | 25 | 108 | 3.2 | 14.5 | 0.00 | 0.61 | 0.61 | 99 | 1014.7 |
| 20260904013848 | 25 | 135 | 1.6 | 4.8 | 0.00 | 0.61 | 0.61 | 99 | 1014.9 |
| 20260904013734 | 25 | 135 | 1.6 | 4.8 | 0.00 | 0.61 | 0.61 | 99 | 1014.9 |
| 20260904013234 | 25 | 156 | 1.6 | 6.4 | 0.00 | 0.61 | 0.61 | 99 | 1014.8 |
| 20260904012345 | 25 | 119 | 1.6 | 6.4 | 0.03 | 0.61 | 0.61 | 99 | 1014.8 |
| 20260904012134 | 25 | 119 | 1.6 | 6.4 | 0.03 | 0.61 | 0.61 | 99 | 1014.8 |
| 20260904011738 | 25 | 116 | 0.0 | 6.4 | 0.03 | 0.61 | 0.61 | 99 | 1014.8 |
| 20260904011604 | 25 | 116 | 0.0 | 6.4 | 0.03 | 0.61 | 0.61 | 99 | 1014.8 |
| 20260904011104 | 25 | 122 | 0.0 | 3.2 | 0.03 | 0.61 | 0.61 | 98 | 1014.8 |